• In United Kingdom
  • List of Countries
  • For 7 days
  • Water Temperature
  • Satellite Maps
  • Weather Map
  • Weather Widgets
  • user-avatar
    Login

    Hourly Weather Oran

    Today, 22 July, Saturday

    Time Temperature Precipitation Wind Pressure Humidity
    00:00 +28°C° 0 mm 3 mps 749 mmHg 47%
    01:00 +28°C° 0.2 mm 3 mps 749 mmHg 48%
    02:00 +27°C° 0.2 mm 3 mps 749 mmHg 49%
    03:00 +27°C° 0.2 mm 3 mps 749 mmHg 50%
    04:00 +27°C° 0 mm 2 mps 749 mmHg 50%
    05:00 +27°C° 0 mm 2 mps 749 mmHg 49%
    06:00 +27°C° 0 mm 2 mps 750 mmHg 48%
    07:00 +28°C° 0 mm 2 mps 750 mmHg 43%
    08:00 +30°C° 0 mm 2 mps 750 mmHg 38%
    09:00 +31°C° 0 mm 2 mps 750 mmHg 33%
    10:00 +33°C° 0 mm 3 mps 750 mmHg 30%
    11:00 +34°C° 0 mm 3 mps 750 mmHg 28%
    12:00 +36°C° 0 mm 4 mps 750 mmHg 26%
    13:00 +36°C° 0 mm 4 mps 750 mmHg 27%
    14:00 +36°C° 0 mm 4 mps 750 mmHg 28%
    15:00 +35°C° 0 mm 3 mps 749 mmHg 29%
    16:00 +35°C° 0 mm 3 mps 749 mmHg 30%
    17:00 +34°C° 0 mm 2 mps 749 mmHg 32%
    18:00 +32°C° 0 mm 2 mps 749 mmHg 33%
    19:00 +32°C° 0 mm 2 mps 750 mmHg 35%
    20:00 +31°C° 0 mm 1 mps 750 mmHg 37%
    21:00 +31°C° 0 mm 1 mps 750 mmHg 38%
    22:00 +31°C° 0 mm 2 mps 751 mmHg 40%
    23:00 +30°C° 0 mm 2 mps 751 mmHg 41%

    Tomorrow, 23 July, Sunday

    Time Temperature Precipitation Wind Pressure Humidity
    00:00 +30°C° 0 mm 2 mps 751 mmHg 43%
    01:00 +29°C° 0 mm 2 mps 751 mmHg 45%
    02:00 +29°C° 0 mm 2 mps 751 mmHg 48%
    03:00 +28°C° 0 mm 1 mps 751 mmHg 51%
    04:00 +28°C° 0 mm 1 mps 751 mmHg 51%
    05:00 +28°C° 0 mm 1 mps 751 mmHg 51%
    06:00 +28°C° 0 mm 1 mps 751 mmHg 51%
    07:00 +29°C° 0 mm 1 mps 752 mmHg 47%
    08:00 +30°C° 0 mm 1 mps 752 mmHg 42%
    09:00 +32°C° 0 mm 1 mps 752 mmHg 38%
    10:00 +34°C° 0 mm 2 mps 752 mmHg 35%
    11:00 +35°C° 0 mm 3 mps 752 mmHg 32%
    12:00 +37°C° 0 mm 4 mps 752 mmHg 29%
    13:00 +36°C° 0 mm 4 mps 752 mmHg 29%
    14:00 +36°C° 0 mm 3 mps 752 mmHg 30%
    15:00 +36°C° 0 mm 3 mps 752 mmHg 30%
    16:00 +36°C° 0 mm 3 mps 752 mmHg 31%
    17:00 +35°C° 0 mm 2 mps 752 mmHg 33%
    18:00 +35°C° 0 mm 2 mps 751 mmHg 34%
    19:00 +33°C° 0 mm 1 mps 752 mmHg 36%
    20:00 +33°C° 0 mm 1 mps 752 mmHg 37%
    21:00 +33°C° 0 mm 1 mps 753 mmHg 38%
    22:00 +32°C° 0 mm 1 mps 753 mmHg 40%
    23:00 +31°C° 0 mm 1 mps 752 mmHg 41%

    Day after tomorrow, 24 July, Monday

    Time Temperature Precipitation Wind Pressure Humidity
    00:00 +31°C° 0 mm 2 mps 752 mmHg 43%
    01:00 +30°C° 0 mm 1 mps 752 mmHg 45%
    02:00 +30°C° 0 mm 1 mps 752 mmHg 48%
    03:00 +29°C° 0 mm 1 mps 751 mmHg 50%
    04:00 +29°C° 0 mm 1 mps 752 mmHg 50%
    05:00 +29°C° 0 mm 1 mps 752 mmHg 51%
    06:00 +29°C° 0 mm 1 mps 752 mmHg 51%
    07:00 +31°C° 0 mm 1 mps 752 mmHg 45%
    08:00 +32°C° 0 mm 1 mps 752 mmHg 38%
    09:00 +34°C° 0 mm 1 mps 752 mmHg 31%
    10:00 +35°C° 0 mm 1 mps 752 mmHg 28%
    11:00 +38°C° 0 mm 2 mps 752 mmHg 24%
    12:00 +39°C° 0 mm 2 mps 751 mmHg 21%
    13:00 +39°C° 0 mm 3 mps 751 mmHg 20%
    14:00 +39°C° 0 mm 3 mps 751 mmHg 20%
    15:00 +40°C° 0 mm 4 mps 750 mmHg 20%
    16:00 +38°C° 0 mm 4 mps 750 mmHg 22%
    17:00 +37°C° 0 mm 3 mps 750 mmHg 24%
    18:00 +36°C° 0 mm 3 mps 750 mmHg 26%
    19:00 +36°C° 0 mm 3 mps 750 mmHg 28%
    20:00 +35°C° 0 mm 2 mps 750 mmHg 31%
    21:00 +34°C° 0 mm 2 mps 751 mmHg 33%
    22:00 +32°C° 0 mm 2 mps 751 mmHg 35%
    23:00 +32°C° 0 mm 2 mps 751 mmHg 37%

    25 July, Tuesday

    Time Temperature Precipitation Wind Pressure Humidity
    00:00 +31°C° 0 mm 3 mps 751 mmHg 39%
    01:00 +31°C° 0 mm 3 mps 750 mmHg 44%
    02:00 +30°C° 0 mm 3 mps 750 mmHg 49%
    03:00 +29°C° 0 mm 3 mps 749 mmHg 53%
    04:00 +29°C° 0 mm 2 mps 749 mmHg 55%
    05:00 +28°C° 0 mm 2 mps 749 mmHg 57%
    06:00 +28°C° 0 mm 2 mps 749 mmHg 58%
    07:00 +30°C° 0 mm 2 mps 749 mmHg 51%
    08:00 +31°C° 0 mm 2 mps 749 mmHg 43%
    09:00 +34°C° 0 mm 2 mps 750 mmHg 35%
    10:00 +35°C° 0 mm 3 mps 750 mmHg 33%
    11:00 +36°C° 0 mm 3 mps 749 mmHg 30%
    12:00 +37°C° 0 mm 4 mps 749 mmHg 28%
    13:00 +37°C° 0 mm 4 mps 749 mmHg 28%
    14:00 +37°C° 0 mm 4 mps 749 mmHg 29%
    15:00 +37°C° 0 mm 4 mps 748 mmHg 29%
    16:00 +37°C° 0 mm 4 mps 748 mmHg 31%
    17:00 +36°C° 0 mm 4 mps 748 mmHg 32%
    18:00 +35°C° 0 mm 4 mps 748 mmHg 33%
    19:00 +34°C° 0 mm 3 mps 748 mmHg 38%
    20:00 +33°C° 0 mm 3 mps 748 mmHg 42%
    21:00 +31°C° 0 mm 3 mps 749 mmHg 46%
    22:00 +31°C° 0 mm 2 mps 749 mmHg 50%
    23:00 +30°C° 0 mm 2 mps 749 mmHg 54%

    26 July, Wednesday

    Time Temperature Precipitation Wind Pressure Humidity
    00:00 +29°C° 0 mm 1 mps 749 mmHg 58%
    01:00 +28°C° 0 mm 2 mps 748 mmHg 61%
    02:00 +28°C° 0 mm 2 mps 748 mmHg 64%
    03:00 +27°C° 0 mm 2 mps 748 mmHg 67%
    04:00 +27°C° 0 mm 2 mps 748 mmHg 69%
    05:00 +27°C° 0 mm 1 mps 748 mmHg 70%
    06:00 +27°C° 0 mm 1 mps 749 mmHg 71%
    07:00 +28°C° 0 mm 1 mps 749 mmHg 62%
    08:00 +29°C° 0 mm 1 mps 749 mmHg 53%
    09:00 +31°C° 0 mm 1 mps 749 mmHg 44%
    10:00 +32°C° 0 mm 2 mps 749 mmHg 41%
    11:00 +34°C° 0 mm 3 mps 749 mmHg 38%
    12:00 +35°C° 0 mm 4 mps 749 mmHg 36%
    13:00 +35°C° 0 mm 4 mps 749 mmHg 36%
    14:00 +35°C° 0 mm 4 mps 749 mmHg 36%
    15:00 +36°C° 0 mm 4 mps 748 mmHg 37%
    16:00 +35°C° 0 mm 4 mps 748 mmHg 38%
    17:00 +34°C° 0 mm 4 mps 748 mmHg 39%
    18:00 +34°C° 0 mm 3 mps 748 mmHg 40%
    19:00 +33°C° 0 mm 3 mps 749 mmHg 43%
    20:00 +33°C° 0 mm 3 mps 749 mmHg 46%
    21:00 +31°C° 0 mm 3 mps 750 mmHg 49%
    22:00 +30°C° 0 mm 3 mps 750 mmHg 50%
    23:00 +30°C° 0 mm 2 mps 750 mmHg 52%

    27 July, Thursday

    Time Temperature Precipitation Wind Pressure Humidity
    00:00 +30°C° 0 mm 2 mps 750 mmHg 53%
    01:00 +29°C° 0 mm 2 mps 750 mmHg 55%
    02:00 +29°C° 0 mm 2 mps 750 mmHg 57%
    03:00 +28°C° 0 mm 2 mps 750 mmHg 59%
    04:00 +28°C° 0 mm 2 mps 750 mmHg 59%
    05:00 +28°C° 0 mm 2 mps 750 mmHg 59%
    06:00 +28°C° 0 mm 2 mps 750 mmHg 60%
    07:00 +29°C° 0 mm 2 mps 750 mmHg 54%
    08:00 +30°C° 0 mm 2 mps 751 mmHg 47%
    09:00 +32°C° 0 mm 2 mps 751 mmHg 41%
    10:00 +34°C° 0 mm 3 mps 751 mmHg 37%
    11:00 +36°C° 0 mm 3 mps 751 mmHg 33%
    12:00 +37°C° 0 mm 4 mps 751 mmHg 29%
    13:00 +37°C° 0 mm 4 mps 750 mmHg 29%
    14:00 +38°C° 0 mm 4 mps 750 mmHg 28%
    15:00 +39°C° 0 mm 5 mps 750 mmHg 27%
    16:00 +39°C° 0 mm 5 mps 750 mmHg 28%
    17:00 +37°C° 0 mm 4 mps 750 mmHg 29%
    18:00 +36°C° 0 mm 4 mps 750 mmHg 29%
    19:00 +36°C° 0 mm 4 mps 750 mmHg 30%
    20:00 +35°C° 0 mm 3 mps 751 mmHg 32%
    21:00 +34°C° 0 mm 2 mps 751 mmHg 33%
    22:00 +32°C° 0 mm 2 mps 751 mmHg 35%
    23:00 +32°C° 0 mm 2 mps 751 mmHg 36%
    Show more